Weather History for KGRI - January, 2014

Change the Weather History Date:

Sunday, January 26, 2014

  Actual Average Record
Temperature  
Mean Temperature 33 °F 25 °F  
Max Temperature 57 °F 36 °F 72 °F (2002)
Min Temperature 9 °F 15 °F -26 °F (1950)
Degree Days  
Heating Degree Days 32 40  
Month to date heating degree days 990 1040  
Since 1 July heating degree days 3454 3559  
Cooling Degree Days 0 0  
Month to date cooling degree days 0 0  
Year to date cooling degree days 0 0  
Moisture  
Dew Point 16 °F    
Average Humidity 50    
Maximum Humidity 70    
Minimum Humidity 30    
Precipitation  
Precipitation T in 0.02 in 0.80 in (1932)
Month to date precipitation 0.14 0.43  
Year to date precipitation 0.14 0.43  
Snow  
Snow T in 0.20 in 8.00 in (1932)
Month to date snowfall 2.4 5.3  
Since 1 July snowfall 4.8 14.6  
Snow Depth 0.00 in    
Sea Level Pressure  
Sea Level Pressure 29.89 in    
Wind  
Wind Speed 23 mph (NW)    
Max Wind Speed 47 mph    
Max Gust Speed 56 mph    
Visibility 10 miles    
Events      
T = Trace of Precipitation, MM = Missing Value Source: NWS Daily Summary

Daily Weather History Graph

Daily Weather History Graph

Search for Another Location

Airport or City:

Trip Planner

Search our weather history database for the weather conditions in past years. The results will help you decide how hot, cold, wet, or windy it might be!

Date:

Astronomy

Jan. 26, 2014 Rise Set
Actual Time 7:49 AM CST 5:43 PM CST
Civil Twilight 7:19 AM CST 6:12 PM CST
Nautical Twilight 6:46 AM CST 6:45 PM CST
Astronomical Twilight 6:13 AM CST 7:18 PM CST
Moon 3:28 AM CST (1/26) 1:33 PM CST (1/26)
Length of Visible Light 10h 53m
Length of Day
9h 54m
Waning Crescent, 23% of the Moon is Illuminated
Jan 26
Waning Crescent
Jan 30
New
Feb 6
First Quarter
Feb 14
Full
Feb 22
Last Quarter

Hourly Weather History & Observations

Time (CST) Temp. Windchill Dew Point Humidity Pressure Visibility Wind Dir Wind Speed Gust Speed Precip Events Conditions
12:53 AM 46.0 °F 39.0 °F 23.0 °F 40% 29.66 in 10.0 mi West 17.3 mph - N/A   Clear
1:53 AM 44.1 °F 37.4 °F 23.0 °F 43% 29.67 in 10.0 mi West 13.8 mph - N/A   Clear
2:53 AM 52.0 °F - 25.0 °F 35% 29.68 in 10.0 mi WNW 19.6 mph - N/A   Clear
3:53 AM 48.9 °F - 26.1 °F 41% 29.69 in 10.0 mi WNW 16.1 mph - N/A   Clear
4:53 AM 44.1 °F 37.4 °F 27.0 °F 51% 29.70 in 10.0 mi NW 13.8 mph - N/A   Clear
5:53 AM 42.1 °F 35.2 °F 28.9 °F 60% 29.73 in 10.0 mi NNW 12.7 mph - N/A   Clear
6:53 AM 39.9 °F 31.8 °F 28.0 °F 63% 29.75 in 10.0 mi NNW 15.0 mph - N/A   Clear
7:53 AM 36.0 °F 28.0 °F 27.0 °F 70% 29.75 in 10.0 mi WNW 11.5 mph - N/A   Clear
8:53 AM 37.9 °F 31.5 °F 27.0 °F 65% 29.75 in 10.0 mi West 9.2 mph - N/A   Clear
9:53 AM 44.1 °F 36.8 °F 28.0 °F 53% 29.73 in 10.0 mi West 16.1 mph - N/A   Clear
10:53 AM 48.9 °F - 28.0 °F 44% 29.71 in 10.0 mi WNW 19.6 mph - N/A   Clear
11:53 AM 52.0 °F - 28.0 °F 40% 29.69 in 10.0 mi West 20.7 mph 25.3 mph N/A   Clear
12:53 PM 55.0 °F - 24.1 °F 30% 29.66 in 10.0 mi WNW 32.2 mph 40.3 mph N/A   Scattered Clouds
1:53 PM 54.0 °F - 25.0 °F 33% 29.66 in 10.0 mi WNW 23.0 mph 35.7 mph N/A   Overcast
2:53 PM 48.9 °F - 25.0 °F 39% 29.71 in 10.0 mi North 42.6 mph 50.6 mph N/A   Overcast
3:53 PM 35.1 °F 21.4 °F 19.0 °F 52% 29.88 in 10.0 mi North 32.2 mph 49.5 mph N/A   Overcast
4:53 PM 32.0 °F 17.6 °F 10.0 °F 40% 29.96 in 10.0 mi NNW 29.9 mph 44.9 mph 0.00 in   Overcast
5:53 PM 26.1 °F 9.1 °F 3.0 °F 37% 30.05 in 10.0 mi North 32.2 mph 44.9 mph N/A   Overcast
6:53 PM 21.9 °F 3.4 °F -0.9 °F 37% 30.15 in 10.0 mi NNW 32.2 mph 51.8 mph N/A   Overcast
7:53 PM 18.0 °F -2.6 °F -2.9 °F 40% 30.23 in 10.0 mi North 34.5 mph 43.7 mph N/A   Overcast
8:53 PM 15.1 °F -3.7 °F -7.1 °F 37% 30.27 in 10.0 mi North 24.2 mph 39.1 mph N/A   Scattered Clouds
9:53 PM 12.0 °F -8.1 °F -5.1 °F 46% 30.31 in 10.0 mi North 25.3 mph 35.7 mph N/A   Clear
10:53 PM 10.0 °F -10.4 °F -7.1 °F 46% 30.33 in 10.0 mi North 24.2 mph - N/A   Clear
11:53 PM 9.0 °F -11.0 °F -8.0 °F 46% 30.38 in 10.0 mi North 21.9 mph - N/A   Clear